Location: Avebury
(53.1487°N, 106.9774°W)
Time: 15:51:07
(UTC+00:00)

Envisat - Pass Details

Date: 19 January 2022
Orbit: 764 x 765 km, 98.2° (Epoch: 22 May)

Event Time Altitude Azimuth Distance (km) Brightness Sun altitude
Rises 10:17:57 0° 31° (NNE) 3,243 6.9 -42.6°
Reaches altitude 10° 10:23:02 10° 75° (ENE) 2,308 6.1 -41.9°
Maximum altitude 10:23:33 10° 81° (E) 2,297 6.1 -41.8°
Drops below altitude 10° 10:24:05 10° 87° (E) 2,306 6.0 -41.7°
Sets 10:29:07 0° 131° (SE) 3,224 6.5 -41.0°
